User: anonymous   Login
Location: Coleman
(45.0650°N, 88.0340°W)
Time: 07:07:14
(UTC-05:00)
Language:

Iridium 97 - Orbit

View from above orbital plane
View from above orbital plane
View from above satellite
View from above satellite

Ground track
Ground track

The orbit data is extracted from the following two-line orbital elements,

1 27450U 02031A   16270.48644899  .00000099  00000-0  28380-4 0  9995
2 27450  86.3931  69.1372 0002130  86.6668 273.4772 14.34216868752430
Epoch (UTC): 26 September 2016 11:40:29
Eccentricity: 0.0002130
inclination: 86.3931°
perigee height: 776 km
apogee height: 779 km
right ascension of ascending node: 69.1372°
argument of perigee: 86.6668°
revolutions per day: 14.34216868
mean anomaly at epoch: 273.4772°
orbit number at epoch: 75243

The dashed part of the orbit path shows where the satellite is in the earth's shadow,  

DLR